Location: Krakow
(50.0830°N, 19.9170°E)
Time: 21:22:22
(UTC+02:00)

A-11 Canister half - Pass Details

Date: 28 May 2024
Orbit: 1515 x 1684 km, 47.2° (Epoch: 17 June)

Event Time Altitude Azimuth Distance (km) Brightness Sun altitude
Exits shadow 00:49:27 25° 186° (S) 2,760 9.7 -18.4°
Maximum altitude 00:53:48 37° 142° (SE) 2,256 9.5 -18.3°
Drops below altitude 10° 01:02:05 10° 80° (E) 3,712 11.2 -18.2°
Sets 01:05:22 0° 72° (ENE) 4,682 11.9 -18.2°
